La Nava - Corral De Ayllón Airport

Jump to: basic info | weather | comments

Related pages: nearby airports | nearby navaids | notams | map

Basic information (top)

Codes: LECA
Location: lon 41.410801, lat -3.448330, elev 3,280 ft / 1,000 m msl
Status: small_airport

Weather (top)

Current conditions for Torrejón Airport 55nm (102km) S (rec'd 2015/04/21 04:00Z):

LETO 210400Z 02006KT CAVOK 08/05 Q1022 NOSIG

Airport forecast for Torrejón Airport 55nm (102km) S (rec'd 2015/04/20 00:27Z):

TAF LETO 202300Z 2100/2124 VRB05KT CAVOK TX23/2114Z TN07/2105Z 
      BECMG 2111/2113 18010KT PROB30 
      TEMPO 2118/2124 RA

Latest comments (top)

No comments yet for La Nava - Corral De Ayllón Airport

More... (top)

See also NOTAMs and nearby airports and navaids, or visit the La Nava - Corral De Ayllón Airport page at the main OurAirports website..